Regional Weather Roundup
Issued by NWS Cleveland, OH

Home | Current Version | Previous Version | Text Only | Print | Product List | Glossary On
Versions: 1 2 3 4 5 6 7 8 9 10 11 12 13 14 15 16 17 18 19 20 21 22 23 24 25 26 27 28 29 30 31 32 33 34 35 36 37 38 39 40 41 42 43 44 45 46 47 48 49 50
000
ASUS41 KCLE 201010
RWRCLE
OHIO REGIONAL WEATHER ROUNDUP
NATIONAL WEATHER SERVICE WILMINGTON, OH
600 AM EDT SAT SEP 20 2014

NOTE: "FAIR" INDICATES FEW OR NO CLOUDS BELOW 12,000 FEET WITH NO
SIGNIFICANT WEATHER AND/OR OBSTRUCTIONS TO VISIBILITY.

OHZ001>008-015>018-024>027-034-035-043-044-201100-
   NORTHWEST OHIO

CITY           SKY/WX    TMP DP  RH WIND       PRES   REMARKS
DEFIANCE       CLEAR     51  46  83 S5        30.03R
FINDLAY        CLEAR     57  51  80 S10       30.03R
TOLEDO EXPRESS CLEAR     52  47  83 SW5       30.02R
TOLEDO METCALF CLEAR     53  47  79 SW7       30.03R
LIMA           CLEAR     60  52  74 S9        30.05R
$$

OHZ009>014-019>023-028>033-038-089-201100-
   NORTHEAST OHIO

CITY           SKY/WX    TMP DP  RH WIND       PRES   REMARKS
CLE-HOPKINS    PTCLDY    61  57  87 S13       30.07R
CLE-LAKEFRONT  PTCLDY    62  57  83 S14       30.03R
CUY CO. ARPT   NOT AVBL
LORAIN-ELYRIA  PTCLDY    61  56  83 S8        30.05R
ASHTABULA      PTCLDY    57  55  93 S7        30.08R
AKRON-CANTON   PTCLDY    61  56  83 S12       30.09S
WOOSTER        PTCLDY    60  56  86 S8        30.09S
MANSFIELD      CLEAR     58  58 100 S9        30.07S
YOUNGSTOWN     PTCLDY    58  55  90 S8        30.10R
$$

OHZ042-051>053-060>062-070>072-077>081-201100-
  SOUTHWEST OHIO

CITY           SKY/WX    TMP DP  RH WIND       PRES   REMARKS
CINC-COVINGTON PTCLDY    60  57  89 S6        30.07R
CINC-LUNKEN    PTCLDY    53  52  96 CALM      30.08S
HAMILTON       PTCLDY    51  50  96 CALM      30.08R FOG
DAYTON         PTCLDY    59  54  83 S7        30.08R
WRIGHT-PAT AFB CLEAR     54  51  89 CALM      30.07R
DAYTON GENERAL PTCLDY    59  57  93 S7        30.07R
WILMINGTON     PTCLDY    59  56  89 S6        30.08R
$$

OHZ036-037-039>041-045>050-054>059-063>069-073>076-082>088-201100-
  CENTRAL AND SOUTHEAST OHIO

CITY           SKY/WX    TMP DP  RH WIND       PRES   REMARKS
COLUMBUS       PTCLDY    63  58  83 S3        30.08R
OSU AIRPORT    PTCLDY    59  56  89 S7        30.08R
BOLTON FIELD   PTCLDY    56  56 100 S6        30.09R FOG
RICKENBACK AFB PTCLDY    53  52  96 SW3       30.08R FOG
NEWARK         PTCLDY    62  57  83 S8        30.09R
MARION         CLEAR     55  53  93 S9        30.07R FOG
LANCASTER      PTCLDY    62  58  86 S7        30.10R
ZANESVILLE     MOCLDY    61  56  83 S7        30.11R
NEW PHILLY     PTCLDY    61  57  87 S6        30.12R
$$



USA.gov is the U.S. government's official web portal to all federal, state and local government web resources and services.